Temp
67 67 69 69 69 69 68 69 69 69 70 70 69 69 69 69 68 68 68 68 69 71 72 71 71 71 72 73 72 73 72 71 70 67 66 67 65 67 71 70 70 71 72 69 68 64 63 60 63 72 74 75 73 72 74 74 70 68 67 68 69 67 67
69 69 70 71 70 70 68 69 69 69 70 70 70 69 69 70 69 67 68 67 67 69 70 70 70 71 69 68 69 70 70 70 70 69 67 65 67 66 67 67 69 68 70 70 71 69 64 61 62 65 66 72 71 70 70 72 73 71 70 69 69 69 67
69 69 70 69 69 70 69 69 69 69 69 69 70 71 69 70 69 68 68 68 67 68 68 69 69 69 70 69 69 69 70 69 70 69 68 67 67 67 69 68 67 67 67 67 67 68 68 68 62 65 67 66 63 67 70 70 74 73 71 69 68 69 68
69 68 67 67 68 68 68 68 68 68 69 69 69 69 71 71 69 69 67 67 68 67 66 67 67 68 68 69 70 71 70 69 69 69 69 68 67 67 68 67 66 67 66 65 65 67 67 66 65 65 68 70 69 66 68 73 73 74 73 71 70 69 68
69 69 68 67 68 68 68 67 68 68 69 69 69 69 69 70 70 69 70 70 68 67 66 67 67 68 68 69 69 69 69 69 70 69 69 67 67 66 67 67 66 68 67 67 69 69 67 66 66 64 66 69 71 72 71 70 73 74 72 72 71 70 70
69 68 69 68 68 67 67 67 67 67 67 67 68 68 69 70 70 69 69 68 68 68 68 68 68 69 69 68 69 69 68 67 66 67 67 67 68 66 65 67 67 68 68 70 70 68 68 67 67 63 66 70 65 67 70 69 67 71 73 73 72 72 72
68 68 67 68 68 67 68 67 67 67 67 67 68 68 70 71 70 70 70 69 70 70 69 69 69 68 67 66 66 67 67 66 66 66 66 67 67 68 68 66 68 68 67 69 68 69 68 67 65 63 63 64 66 66 68 67 71 67 69 72 76 74 73
69 68 68 69 68 68 68 68 68 68 67 68 68 68 70 70 70 70 70 69 70 69 69 68 68 67 67 67 67 65 65 65 65 64 64 64 64 66 67 67 67 67 67 69 68 68 70 68 67 66 65 61 61 64 65 69 69 70 70 71 76 74 73
69 69 69 69 69 68 68 68 68 68 68 68 69 69 70 70 70 70 70 70 70 69 69 69 68 67 67 65 64 64 64 67 65 64 63 64 64 64 65 67 68 69 69 69 69 68 68 69 68 68 67 65 60 58 63 62 65 68 75 71 74 75 73
69 68 67 68 69 69 68 68 68 69 69 68 68 69 69 69 69 69 69 69 69 69 69 68 68 68 67 65 63 63 63 64 64 64 64 63 62 64 63 65 67 67 68 69 69 69 69 68 69 68 68 65 64 60 59 59 61 62 71 75 69 71 75
69 69 69 69 68 68 68 68 68 68 68 69 69 69 69 69 68 70 69 69 69 69 69 68 68 68 67 64 64 62 62 62 62 63 64 64 64 63 62 64 65 66 68 68 68 68 68 67 66 67 67 67 66 62 61 59 59 67 65 69 73 72 73
69 69 69 69 68 68 68 68 68 68 68 68 68 68 67 68 68 68 68 69 69 69 69 68 68 67 63 61 64 63 65 64 63 62 63 62 63 63 62 62 62 64 67 67 68 68 67 67 66 66 66 67 66 65 62 62 58 63 69 64 68 75 73
70 70 69 68 67 68 69 69 68 67 67 68 68 69 68 69 68 67 68 68 69 69 69 68 68 67 64 61 62 62 63 64 62 62 62 63 64 62 62 62 62 63 65 66 67 67 66 67 67 66 67 66 65 65 63 62 59 60 65 65 67 70 72
68 69 68 68 67 67 67 68 67 67 68 67 68 68 68 69 70 67 69 68 69 69 68 68 67 66 64 62 62 63 64 64 63 61 62 62 64 63 63 63 63 63 63 62 67 67 66 68 68 66 66 65 64 65 64 61 59 60 63 66 67 68 71
69 69 68 67 67 67 67 67 67 68 66 67 68 69 70 69 69 69 68 69 68 69 69 69 68 66 65 62 62 63 64 63 62 61 60 60 62 63 62 61 62 62 64 63 64 70 69 67 68 66 66 67 64 66 66 64 60 60 59 63 64 69 67
69 68 67 66 66 67 66 67 68 67 67 67 68 68 68 68 68 69 68 68 68 68 68 68 67 66 64 64 63 62 62 62 61 60 60 60 61 61 61 60 60 60 62 61 61 64 68 68 68 68 67 67 66 65 67 66 62 60 60 60 62 64 65
67 67 66 66 66 66 67 67 68 68 68 67 68 67 68 69 68 67 67 68 68 68 68 67 67 67 66 63 61 58 59 61 60 60 60 60 60 60 60 60 61 60 61 60 60 61 62 66 65 66 67 66 66 66 66 65 65 62 61 61 63 66 66
66 66 65 66 66 66 66 67 67 68 67 67 68 67 67 68 67 67 66 67 67 68 68 67 67 66 64 62 60 59 59 60 60 60 60 60 60 59 60 59 60 61 60 58 58 59 63 63 66 66 65 65 65 65 66 65 64 63 61 60 62 66 65
66 66 66 66 66 66 66 67 67 67 69 67 67 67 67 67 68 68 68 68 68 67 68 67 66 62 61 60 59 58 59 59 59 61 61 60 60 60 60 60 61 61 60 59 58 59 60 60 62 64 63 64 65 65 63 63 62 61 61 61 60 62 63
66 66 66 65 66 67 67 67 68 68 68 67 67 67 67 67 67 67 67 67 67 67 67 67 63 61 60 60 59 59 59 60 61 62 63 62 62 61 61 61 61 61 60 59 58 59 60 59 62 62 60 62 66 63 62 62 62 60 60 59 60 61 61
66 66 66 67 67 66 66 67 67 66 67 66 67 67 66 66 66 67 67 67 67 67 67 66 62 61 60 60 60 60 61 61 61 61 62 62 62 62 61 61 60 60 60 60 59 60 60 59 61 60 61 62 64 63 62 61 60 59 58 59 58 58 60
66 67 67 67 66 66 66 65 66 66 66 66 66 66 66 66 66 66 67 66 66 66 65 63 61 60 59 59 59 60 60 60 60 60 60 61 61 61 61 61 61 60 60 61 62 61 62 63 61 59 61 61 62 60 59 60 60 60 58 58 57 59 58
67 66 66 66 66 65 66 65 65 65 66 66 65 65 65 65 65 65 65 65 65 64 63 62 61 54 52 54 56 58 59 59 59 59 59 59 59 59 59 59 60 63 62 62 62 56 55 57 60 60 58 58 59 59 58 58 57 58 59 57 56 57 56
67 67 66 66 65 66 66 65 64 65 64 64 63 64 64 64 64 64 64 64 63 63 63 62 51 42 43 46 52 56 57 57 58 59 59 58 58 58 58 58 57 59 60 61 57 53 52 53 53 53 54 56 57 58 58 57 55 58 58 58 59 59 56
67 66 65 66 66 65 65 65 64 64 63 62 63 63 62 63 63 63 63 63 62 62 63 54 42 44 44 43 47 52 55 56 57 58 58 58 58 57 57 57 57 58 58 58 56 55 54 51 49 49 49 49 49 49 51 55 56 54 53 53 54 57 58
66 66 65 65 64 64 63 64 63 62 62 62 62 62 62 62 62 62 62 62 62 62 63 51 44 44 44 43 42 48 55 56 57 57 57 57 57 57 56 56 55 57 58 59 58 56 55 53 52 51 52 52 50 47 42 45 50 55 54 53 53 54 57
65 65 65 64 63 63 62 62 61 61 62 62 61 61 61 61 61 62 62 62 62 62 62 56 43 44 43 41 41 43 54 56 57 57 57 57 56 56 56 56 55 55 56 57 56 56 55 54 53 54 54 54 55 53 46 44 43 46 53 54 54 54 56
64 64 64 63 62 62 62 61 61 61 61 61 60 60 60 60 61 61 62 62 62 61 63 49 42 42 41 42 42 46 56 58 58 58 58 57 57 56 56 56 56 55 56 55 56 56 55 54 53 53 53 53 54 55 55 55 55 55 55 56 56 56 54
64 64 63 62 62 61 60 60 60 61 60 60 61 61 61 61 61 61 61 61 60 60 62 45 41 41 42 41 44 55 57 57 57 58 58 58 58 57 56 56 55 55 56 55 56 50 53 54 53 53 52 53 53 54 54 57 49 50 53 53 53 52 52
63 62 62 61 61 60 60 60 60 61 60 60 60 60 60 60 61 61 61 61 60 59 60 44 41 41 42 41 47 55 56 56 57 57 57 57 57 58 57 56 55 54 55 55 52 46 47 53 52 52 51 51 52 52 53 53 45 41 41 41 40 40 40
63 62 62 61 60 60 60 60 60 61 59 59 59 60 61 61 61 61 60 60 60 59 58 47 41 41 41 41 47 53 55 55 55 56 57 56 55 56 57 59 58 56 55 55 49 45 45 51 52 51 51 50 50 49 51 53 50 46 42 41 41 41 43
63 62 61 61 60 60 60 60 60 60 60 60 60 61 61 61 60 61 61 60 61 59 56 53 41 40 41 40 46 53 54 55 54 55 54 54 55 56 57 58 58 55 55 53 47 44 44 50 53 52 51 50 49 49 50 52 50 48 47 48 48 49 48
62 61 61 61 60 60 60 60 59 59 59 61 61 61 61 60 60 60 60 60 60 58 57 55 47 39 41 42 41 48 55 54 53 53 53 53 54 56 56 55 55 48 44 43 44 42 43 45 52 52 51 50 49 49 52 51 51 50 50 49 50 51 52
61 61 62 61 61 60 60 60 60 59 59 60 60 59 59 59 59 59 60 60 59 59 57 53 51 40 40 41 40 43 52 53 53 52 52 52 53 53 53 55 55 51 45 44 42 41 42 42 47 53 52 51 51 51 51 51 52 53 51 51 51 51 52
62 61 62 61 60 59 60 61 61 60 60 59 58 58 58 58 58 58 59 59 59 57 56 55 54 48 42 40 40 39 48 52 50 49 50 52 52 52 53 52 53 50 44 43 41 42 41 42 42 51 51 43 43 45 52 52 52 51 50 49 49 49 51
62 62 61 61 60 59 60 60 60 60 59 58 58 57 57 58 57 57 57 58 58 58 57 55 50 52 47 42 41 40 40 43 42 46 50 50 51 51 52 51 52 47 40 41 41 40 41 41 46 46 40 41 42 43 48 49 50 50 49 48 48 49 49
63 62 61 61 60 59 59 59 59 59 59 58 57 57 57 57 56 56 56 57 58 58 58 57 53 48 50 46 44 42 41 40 38 45 48 49 52 52 50 49 46 41 40 41 40 39 40 42 46 40 41 41 42 45 48 48 48 49 49 47 47 48 49
MSLP
1018.26 1018.26 1017.94 1017.78 1017.74 1017.78 1017.78 1017.70 1017.50 1017.38 1017.30 1017.30 1017.30 1017.18 1017.06 1016.94 1016.94 1016.86 1016.82 1016.82 1016.74 1016.54 1016.50 1016.42 1016.34 1016.30 1016.38 1016.26 1016.18 1016.10 1016.02 1016.10 1016.30 1016.58 1016.58 1016.30 1016.54 1016.18 1015.34 1015.42 1015.38 1015.22 1015.14 1015.26 1015.38 1016.10 1016.38 1016.78 1016.02 1014.74 1014.34 1014.26 1014.38 1014.54 1014.66 1015.18 1015.74 1016.34 1016.66 1016.34 1016.54 1016.86 1016.62
1018.22 1018.14 1017.86 1017.70 1017.74 1017.70 1017.86 1017.62 1017.54 1017.46 1017.34 1017.22 1017.18 1017.18 1017.06 1016.94 1016.86 1016.86 1016.82 1016.86 1016.78 1016.54 1016.42 1016.42 1016.38 1016.30 1016.38 1016.46 1016.50 1016.38 1016.38 1016.22 1016.18 1016.22 1016.38 1016.42 1016.34 1016.30 1015.86 1015.54 1015.38 1015.46 1015.22 1014.94 1014.86 1014.94 1015.74 1016.30 1016.10 1015.62 1015.34 1014.50 1014.54 1014.74 1014.82 1014.86 1015.18 1015.46 1015.74 1016.06 1016.26 1016.50 1016.66
1018.42 1018.22 1018.06 1018.02 1017.86 1017.66 1017.74 1017.66 1017.54 1017.50 1017.42 1017.30 1017.18 1017.10 1017.10 1016.94 1016.90 1016.82 1016.82 1016.74 1016.74 1016.70 1016.58 1016.42 1016.34 1016.30 1016.22 1016.14 1016.18 1016.18 1016.14 1016.18 1016.02 1016.10 1016.22 1016.18 1016.10 1015.98 1015.82 1015.66 1015.70 1015.50 1015.42 1015.30 1015.06 1014.94 1014.98 1015.14 1015.94 1015.70 1014.98 1015.38 1015.82 1015.14 1014.70 1014.86 1014.90 1015.18 1015.50 1015.78 1016.06 1016.26 1016.42
1018.66 1018.54 1018.46 1018.34 1018.14 1017.98 1017.98 1017.82 1017.62 1017.46 1017.26 1017.22 1017.14 1017.10 1016.98 1016.90 1016.86 1016.78 1016.74 1016.74 1016.66 1016.66 1016.62 1016.58 1016.54 1016.50 1016.34 1016.18 1016.02 1015.98 1015.94 1015.98 1015.98 1015.98 1015.98 1015.94 1015.98 1016.02 1015.90 1015.74 1015.66 1015.58 1015.62 1015.62 1015.30 1014.90 1014.90 1015.18 1015.26 1015.18 1014.70 1014.46 1014.98 1015.30 1014.90 1014.58 1014.54 1014.82 1015.18 1015.46 1015.82 1016.10 1016.26
1018.78 1018.74 1018.66 1018.58 1018.38 1018.34 1018.18 1018.06 1017.78 1017.58 1017.42 1017.22 1017.14 1017.14 1017.06 1016.90 1016.82 1016.78 1016.70 1016.66 1016.70 1016.70 1016.66 1016.54 1016.46 1016.42 1016.34 1016.14 1016.02 1015.98 1015.98 1015.90 1015.82 1015.86 1015.86 1015.90 1015.90 1015.94 1015.90 1015.74 1015.62 1015.38 1015.22 1015.18 1014.82 1014.66 1014.82 1014.90 1015.02 1015.26 1015.06 1014.46 1014.18 1014.30 1014.58 1014.50 1014.26 1014.50 1014.98 1015.26 1015.46 1015.62 1015.86
1018.90 1018.82 1018.74 1018.66 1018.50 1018.46 1018.26 1018.18 1018.06 1017.94 1017.70 1017.62 1017.38 1017.26 1017.10 1016.98 1016.86 1016.90 1016.78 1016.74 1016.66 1016.54 1016.46 1016.38 1016.30 1016.18 1016.14 1016.18 1016.22 1016.10 1016.10 1016.06 1016.06 1016.02 1016.06 1015.90 1015.74 1015.86 1015.90 1015.66 1015.50 1015.42 1015.22 1014.82 1014.62 1014.58 1014.46 1014.50 1014.74 1015.34 1014.98 1014.50 1015.02 1014.74 1014.66 1014.50 1014.82 1014.30 1014.30 1014.62 1015.02 1015.18 1015.50
1018.98 1018.86 1018.78 1018.74 1018.58 1018.50 1018.34 1018.22 1018.14 1018.02 1017.94 1017.78 1017.58 1017.46 1017.22 1016.98 1016.90 1016.82 1016.74 1016.66 1016.50 1016.38 1016.26 1016.18 1016.14 1016.14 1016.14 1016.26 1016.18 1016.14 1016.18 1016.10 1016.02 1016.02 1015.90 1015.78 1015.74 1015.62 1015.50 1015.74 1015.58 1015.38 1015.22 1014.86 1014.66 1014.50 1014.50 1014.70 1014.98 1015.14 1015.22 1014.94 1014.74 1014.86 1014.66 1014.54 1014.42 1014.82 1014.58 1014.06 1014.14 1014.50 1014.94
1018.98 1018.86 1018.74 1018.62 1018.54 1018.54 1018.38 1018.26 1018.10 1017.90 1017.86 1017.74 1017.62 1017.42 1017.14 1017.06 1016.94 1016.82 1016.70 1016.62 1016.46 1016.34 1016.22 1016.18 1016.14 1016.10 1016.06 1016.10 1016.14 1016.10 1015.94 1015.98 1016.02 1016.02 1015.98 1015.90 1015.82 1015.74 1015.70 1015.66 1015.58 1015.34 1015.06 1014.82 1014.66 1014.58 1014.34 1014.34 1014.54 1014.66 1014.90 1015.50 1015.22 1014.74 1014.78 1014.42 1014.30 1014.50 1014.58 1014.18 1013.98 1014.30 1014.58
1018.94 1018.82 1018.74 1018.54 1018.42 1018.38 1018.38 1018.26 1018.10 1017.94 1017.78 1017.70 1017.50 1017.34 1017.14 1017.02 1016.94 1016.82 1016.66 1016.54 1016.42 1016.34 1016.22 1016.10 1016.02 1016.02 1015.94 1015.98 1016.02 1016.02 1016.02 1015.82 1015.86 1015.86 1015.82 1015.90 1015.74 1015.42 1015.66 1015.66 1015.54 1015.38 1014.98 1014.70 1014.58 1014.42 1014.26 1014.18 1014.14 1014.14 1014.34 1014.78 1015.50 1015.86 1014.90 1014.98 1014.62 1014.30 1013.70 1014.34 1014.10 1013.98 1014.42
1019.02 1018.94 1018.86 1018.66 1018.50 1018.38 1018.34 1018.22 1018.10 1017.94 1017.78 1017.70 1017.62 1017.34 1017.18 1017.02 1016.86 1016.70 1016.58 1016.42 1016.34 1016.22 1016.14 1016.06 1015.98 1015.82 1015.82 1015.86 1015.94 1015.90 1015.94 1015.82 1015.78 1015.70 1015.70 1015.78 1015.66 1015.54 1015.26 1015.42 1015.62 1015.26 1015.02 1014.66 1014.38 1014.26 1014.10 1014.02 1014.02 1013.94 1013.94 1014.42 1014.66 1015.34 1015.66 1015.50 1014.90 1014.74 1013.94 1013.42 1014.38 1014.14 1014.02
1019.14 1018.98 1018.82 1018.70 1018.54 1018.50 1018.42 1018.22 1018.02 1017.98 1017.94 1017.74 1017.58 1017.42 1017.22 1017.10 1016.90 1016.66 1016.50 1016.34 1016.18 1016.06 1015.94 1015.90 1015.82 1015.66 1015.54 1015.74 1015.70 1015.78 1015.70 1015.66 1015.66 1015.50 1015.30 1015.50 1015.62 1015.42 1015.34 1015.18 1015.26 1015.38 1014.90 1014.66 1014.38 1014.06 1014.02 1013.90 1013.90 1013.94 1013.90 1013.86 1014.02 1014.82 1015.06 1015.46 1015.22 1014.18 1014.14 1013.46 1013.38 1014.06 1013.98
1019.14 1019.02 1018.82 1018.70 1018.70 1018.70 1018.54 1018.34 1018.18 1018.06 1017.90 1017.74 1017.58 1017.34 1017.22 1017.10 1016.94 1016.74 1016.62 1016.46 1016.18 1015.90 1015.74 1015.66 1015.62 1015.54 1015.94 1016.54 1016.06 1015.86 1015.62 1015.38 1015.26 1015.18 1015.14 1015.42 1015.74 1015.42 1015.10 1015.02 1014.86 1014.90 1014.74 1014.46 1014.30 1013.98 1013.82 1013.78 1013.78 1013.82 1013.82 1013.70 1013.86 1014.06 1014.42 1014.82 1015.38 1014.26 1013.62 1014.34 1013.58 1013.38 1013.90
1019.10 1019.02 1018.90 1018.90 1018.90 1018.78 1018.54 1018.42 1018.30 1018.18 1018.02 1017.74 1017.50 1017.22 1017.10 1016.98 1016.78 1016.74 1016.66 1016.54 1016.26 1015.86 1015.66 1015.54 1015.42 1015.46 1015.62 1015.86 1015.94 1015.94 1015.66 1015.38 1015.42 1015.42 1015.22 1015.06 1015.02 1015.30 1015.26 1014.94 1014.58 1014.38 1014.34 1014.54 1014.22 1013.94 1013.78 1013.66 1013.62 1013.70 1013.66 1013.62 1013.62 1013.70 1013.94 1014.42 1014.86 1014.94 1013.94 1013.98 1013.90 1013.98 1013.86
1019.14 1018.98 1018.98 1018.94 1018.94 1018.82 1018.62 1018.34 1018.14 1018.02 1017.86 1017.70 1017.38 1017.18 1017.06 1016.82 1016.58 1016.50 1016.46 1016.46 1016.30 1016.02 1015.70 1015.46 1015.34 1015.38 1015.46 1015.54 1015.54 1015.54 1015.30 1015.18 1015.22 1015.22 1015.18 1014.94 1014.78 1014.70 1014.66 1014.54 1014.38 1014.14 1014.06 1014.58 1014.30 1013.82 1013.74 1013.62 1013.54 1013.50 1013.46 1013.38 1013.50 1013.54 1013.78 1014.26 1014.74 1014.74 1014.10 1013.62 1013.78 1013.94 1013.94
1019.10 1018.98 1018.98 1018.94 1018.90 1018.78 1018.54 1018.26 1017.98 1017.86 1017.86 1017.58 1017.34 1017.18 1016.98 1016.82 1016.66 1016.50 1016.46 1016.34 1016.22 1016.02 1015.78 1015.46 1015.26 1015.30 1015.42 1015.54 1015.46 1015.46 1015.30 1015.06 1015.02 1014.98 1015.10 1015.18 1014.90 1014.54 1014.46 1014.54 1014.54 1014.34 1014.14 1014.10 1014.30 1013.70 1013.54 1013.58 1013.46 1013.46 1013.38 1013.30 1013.30 1013.38 1013.38 1013.98 1014.34 1014.54 1014.58 1014.02 1013.98 1013.78 1014.02
1019.18 1019.02 1018.98 1018.90 1018.74 1018.50 1018.38 1018.22 1017.94 1017.86 1017.70 1017.50 1017.30 1017.14 1017.02 1016.94 1016.82 1016.66 1016.54 1016.34 1016.10 1015.98 1015.82 1015.58 1015.34 1015.26 1015.26 1015.18 1015.26 1015.38 1015.30 1014.94 1014.82 1014.74 1014.74 1014.78 1014.58 1014.42 1014.38 1014.30 1014.18 1014.10 1014.38 1014.18 1014.06 1013.94 1013.54 1013.34 1013.22 1013.18 1013.18 1013.06 1013.06 1013.06 1013.14 1013.38 1013.86 1014.34 1014.38 1014.38 1013.94 1014.06 1014.10
1019.22 1019.14 1019.06 1018.78 1018.66 1018.46 1018.30 1018.18 1017.98 1017.86 1017.70 1017.46 1017.30 1017.18 1017.06 1016.94 1016.86 1016.74 1016.58 1016.34 1016.10 1015.86 1015.66 1015.54 1015.38 1015.18 1015.18 1015.38 1015.70 1016.18 1016.10 1015.14 1014.78 1014.70 1014.66 1014.54 1014.38 1014.38 1014.22 1013.98 1013.66 1013.62 1013.82 1014.14 1014.02 1013.82 1013.98 1013.50 1013.06 1012.98 1012.94 1012.86 1012.82 1012.86 1012.82 1013.02 1013.34 1013.78 1014.02 1014.26 1014.14 1014.02 1014.02
1019.26 1019.14 1018.94 1018.70 1018.54 1018.34 1018.22 1018.10 1017.98 1017.86 1017.70 1017.46 1017.30 1017.18 1017.10 1016.90 1016.78 1016.62 1016.50 1016.38 1016.22 1015.90 1015.58 1015.46 1015.34 1015.38 1015.58 1015.70 1015.86 1015.98 1015.94 1015.38 1014.82 1014.50 1014.30 1014.22 1014.10 1013.98 1013.86 1013.90 1013.74 1013.46 1013.50 1013.66 1013.82 1013.98 1013.54 1013.50 1013.26 1012.78 1012.82 1012.66 1012.70 1012.66 1012.66 1012.86 1013.14 1013.42 1013.94 1014.18 1014.02 1013.62 1013.74
1019.10 1018.90 1018.74 1018.54 1018.42 1018.22 1018.06 1017.94 1017.86 1017.70 1017.50 1017.42 1017.26 1017.06 1016.90 1016.70 1016.58 1016.54 1016.50 1016.30 1016.14 1015.94 1015.62 1015.46 1015.46 1015.66 1015.62 1015.54 1015.54 1015.46 1015.26 1015.02 1015.02 1014.58 1014.18 1013.98 1013.82 1013.70 1013.58 1013.34 1013.26 1013.38 1013.34 1013.22 1013.58 1013.74 1013.46 1013.34 1013.42 1013.02 1012.78 1012.70 1012.54 1012.58 1012.70 1012.86 1013.06 1013.38 1013.74 1014.02 1014.06 1014.10 1013.78
1018.94 1018.86 1018.70 1018.54 1018.38 1018.18 1018.06 1017.94 1017.82 1017.66 1017.46 1017.42 1017.30 1017.06 1016.86 1016.78 1016.66 1016.62 1016.50 1016.30 1016.10 1015.86 1015.62 1015.38 1015.54 1015.70 1015.74 1015.54 1015.42 1015.22 1015.02 1014.70 1014.54 1014.22 1013.98 1013.78 1013.66 1013.46 1013.30 1013.10 1013.02 1012.98 1012.98 1013.10 1013.54 1013.30 1013.18 1013.14 1013.10 1013.14 1013.26 1013.10 1012.50 1012.54 1012.70 1012.90 1013.14 1013.46 1013.70 1013.98 1014.02 1014.02 1014.10
1018.82 1018.82 1018.66 1018.50 1018.42 1018.34 1018.22 1018.02 1017.86 1017.74 1017.58 1017.46 1017.30 1017.10 1017.02 1016.94 1016.78 1016.62 1016.42 1016.22 1015.98 1015.70 1015.50 1015.42 1015.70 1015.86 1015.78 1015.58 1015.34 1015.14 1014.86 1014.66 1014.38 1014.10 1013.82 1013.54 1013.38 1013.30 1013.14 1012.98 1012.86 1012.82 1012.86 1012.78 1012.90 1012.98 1012.86 1012.86 1012.82 1013.06 1013.18 1013.26 1012.86 1012.66 1012.74 1012.98 1013.18 1013.46 1013.74 1013.98 1014.14 1014.18 1014.06
1018.82 1018.78 1018.70 1018.58 1018.50 1018.42 1018.30 1018.14 1017.98 1017.82 1017.70 1017.50 1017.30 1017.18 1017.06 1016.98 1016.90 1016.70 1016.46 1016.30 1016.06 1015.82 1015.70 1015.78 1015.82 1015.82 1015.78 1015.62 1015.42 1015.10 1014.82 1014.54 1014.30 1014.06 1013.82 1013.54 1013.26 1013.18 1013.10 1012.98 1012.82 1012.70 1012.66 1012.74 1012.66 1012.82 1012.82 1012.78 1012.70 1012.82 1013.02 1013.14 1012.78 1012.98 1012.94 1013.02 1013.22 1013.42 1013.70 1013.98 1014.18 1014.10 1014.14
1018.90 1018.86 1018.74 1018.70 1018.58 1018.50 1018.34 1018.18 1018.06 1017.90 1017.70 1017.62 1017.46 1017.30 1017.18 1017.10 1016.94 1016.74 1016.54 1016.30 1016.10 1015.94 1015.82 1015.86 1015.90 1015.94 1015.94 1015.94 1015.70 1015.26 1014.94 1014.66 1014.34 1014.02 1013.82 1013.54 1013.22 1013.14 1013.10 1012.98 1012.82 1012.58 1012.50 1012.50 1012.50 1012.70 1012.70 1012.58 1012.38 1012.46 1012.86 1012.94 1012.78 1012.86 1013.18 1013.30 1013.26 1013.34 1013.62 1013.94 1014.10 1014.18 1014.30
1019.02 1018.86 1018.78 1018.74 1018.66 1018.50 1018.38 1018.26 1018.14 1017.98 1017.86 1017.78 1017.62 1017.38 1017.26 1017.10 1016.94 1016.82 1016.62 1016.34 1016.10 1015.94 1015.78 1015.82 1016.02 1016.06 1015.90 1015.90 1015.94 1015.54 1015.14 1014.78 1014.38 1014.02 1013.78 1013.58 1013.38 1013.10 1013.10 1013.06 1012.98 1012.90 1012.66 1012.50 1012.62 1012.62 1012.62 1012.58 1012.54 1012.62 1012.74 1012.94 1013.02 1012.98 1013.06 1013.26 1013.62 1013.58 1013.70 1013.86 1013.74 1013.90 1014.14
1019.02 1018.98 1018.94 1018.86 1018.78 1018.70 1018.54 1018.42 1018.26 1018.14 1018.02 1017.86 1017.66 1017.46 1017.34 1017.18 1016.98 1016.78 1016.54 1016.26 1016.02 1015.82 1015.62 1015.74 1015.74 1015.78 1015.82 1015.94 1015.98 1015.74 1015.34 1014.86 1014.42 1014.14 1013.90 1013.70 1013.46 1013.18 1013.06 1013.06 1012.98 1012.94 1012.94 1012.86 1012.82 1012.82 1012.82 1012.78 1012.82 1012.90 1012.86 1013.02 1013.38 1013.38 1013.34 1013.34 1013.50 1013.74 1014.02 1014.18 1014.10 1014.02 1013.86
1019.06 1019.02 1019.02 1019.10 1019.10 1019.02 1018.86 1018.66 1018.50 1018.38 1018.22 1017.94 1017.70 1017.58 1017.42 1017.18 1016.94 1016.66 1016.42 1016.18 1015.90 1015.62 1015.42 1015.50 1015.54 1015.58 1015.66 1015.78 1015.78 1015.66 1015.22 1014.78 1014.42 1014.14 1013.98 1013.70 1013.46 1013.22 1013.02 1013.02 1013.02 1012.90 1012.86 1012.90 1012.94 1012.90 1012.94 1013.06 1013.02 1013.02 1013.14 1013.26 1013.46 1013.58 1013.62 1013.78 1013.94 1014.06 1014.38 1014.50 1014.54 1014.30 1014.18
1019.30 1019.22 1019.14 1019.06 1019.06 1018.98 1018.86 1018.82 1018.66 1018.46 1018.22 1017.94 1017.82 1017.62 1017.38 1017.10 1016.78 1016.50 1016.26 1015.98 1015.70 1015.46 1015.30 1015.26 1015.42 1015.82 1016.10 1015.94 1015.74 1015.62 1014.98 1014.50 1014.10 1013.82 1013.66 1013.46 1013.30 1013.18 1013.06 1012.90 1012.86 1012.86 1012.82 1012.78 1012.82 1012.86 1012.98 1013.06 1013.14 1013.18 1013.22 1013.26 1013.42 1013.66 1013.86 1013.98 1014.18 1014.26 1014.22 1014.34 1014.54 1014.54 1014.42
1019.46 1019.42 1019.34 1019.30 1019.26 1019.14 1019.02 1018.90 1018.70 1018.46 1018.26 1018.06 1017.86 1017.62 1017.34 1017.06 1016.66 1016.38 1016.14 1015.94 1015.70 1015.46 1015.22 1015.30 1015.62 1015.86 1015.86 1015.74 1015.46 1015.06 1014.58 1014.14 1013.82 1013.46 1013.22 1013.10 1012.98 1012.94 1012.86 1012.78 1012.62 1012.50 1012.50 1012.54 1012.54 1012.66 1012.74 1012.90 1013.06 1013.18 1013.34 1013.34 1013.42 1013.62 1013.78 1013.94 1014.10 1014.10 1014.10 1014.22 1014.30 1014.38 1014.58
1019.46 1019.42 1019.38 1019.34 1019.30 1019.18 1019.14 1018.98 1018.78 1018.46 1018.26 1018.06 1017.78 1017.54 1017.26 1016.94 1016.58 1016.30 1016.10 1015.90 1015.74 1015.54 1015.22 1015.62 1016.18 1016.30 1016.14 1015.70 1015.34 1014.86 1014.42 1014.10 1013.74 1013.34 1012.98 1012.74 1012.70 1012.70 1012.62 1012.58 1012.46 1012.42 1012.34 1012.34 1012.34 1012.62 1012.78 1012.82 1012.94 1013.02 1013.14 1013.30 1013.50 1013.74 1013.82 1013.82 1013.98 1014.10 1014.14 1014.22 1014.42 1014.58 1014.78
1019.58 1019.58 1019.54 1019.46 1019.38 1019.26 1019.14 1018.94 1018.70 1018.42 1018.26 1017.98 1017.78 1017.50 1017.22 1016.90 1016.54 1016.30 1016.10 1015.86 1015.66 1015.54 1015.38 1016.06 1015.94 1015.94 1015.86 1015.62 1015.30 1014.78 1014.42 1014.06 1013.66 1013.30 1012.98 1012.74 1012.66 1012.46 1012.38 1012.34 1012.30 1012.26 1012.14 1012.10 1012.18 1012.42 1012.54 1012.66 1012.78 1012.98 1013.14 1013.26 1013.46 1013.70 1013.86 1013.86 1013.94 1013.94 1014.10 1014.34 1014.54 1014.66 1014.78
1019.54 1019.54 1019.50 1019.38 1019.34 1019.18 1018.98 1018.78 1018.62 1018.38 1018.18 1017.94 1017.66 1017.34 1017.02 1016.78 1016.54 1016.34 1016.10 1015.78 1015.62 1015.54 1015.74 1016.06 1015.94 1015.90 1015.82 1015.54 1015.30 1014.94 1014.54 1014.22 1013.82 1013.46 1012.98 1012.86 1012.78 1012.50 1012.18 1012.06 1012.02 1012.06 1012.06 1011.94 1011.90 1012.14 1012.38 1012.50 1012.58 1012.62 1012.90 1013.22 1013.50 1013.74 1013.78 1013.78 1014.06 1014.42 1014.54 1014.62 1014.66 1014.70 1014.78
1019.46 1019.54 1019.50 1019.38 1019.22 1019.02 1018.82 1018.58 1018.34 1018.18 1018.02 1017.78 1017.46 1017.10 1016.86 1016.74 1016.50 1016.26 1015.98 1015.70 1015.50 1015.70 1015.78 1015.50 1015.98 1016.02 1015.74 1015.66 1015.38 1015.02 1014.62 1014.30 1014.02 1013.66 1013.38 1013.06 1012.74 1012.34 1011.98 1011.90 1011.90 1011.90 1011.86 1011.78 1011.70 1011.70 1011.82 1011.90 1012.02 1012.22 1012.50 1012.82 1013.06 1013.26 1013.34 1013.54 1013.94 1014.34 1014.58 1014.70 1014.82 1014.78 1014.82
1019.38 1019.50 1019.46 1019.34 1019.14 1018.90 1018.62 1018.34 1018.14 1017.98 1017.78 1017.54 1017.26 1016.98 1016.78 1016.54 1016.34 1016.10 1015.82 1015.62 1015.46 1015.62 1015.58 1016.06 1016.34 1015.86 1015.70 1015.50 1015.46 1015.22 1014.70 1014.38 1014.26 1014.06 1013.78 1013.46 1012.94 1012.26 1012.02 1012.06 1011.90 1011.82 1011.82 1011.74 1011.70 1011.74 1011.70 1011.70 1011.62 1011.86 1012.18 1012.38 1012.46 1012.74 1012.86 1013.22 1013.50 1013.78 1014.10 1014.34 1014.50 1014.54 1014.54
1019.30 1019.34 1019.26 1019.10 1018.98 1018.78 1018.54 1018.30 1018.02 1017.74 1017.54 1017.30 1017.14 1016.90 1016.66 1016.38 1016.14 1015.94 1015.74 1015.54 1015.38 1015.34 1015.66 1016.06 1015.74 1015.58 1015.50 1015.34 1015.34 1015.34 1014.94 1014.66 1014.50 1014.34 1014.06 1013.66 1013.18 1012.74 1012.54 1012.14 1011.86 1011.78 1011.82 1011.86 1011.78 1011.78 1011.90 1011.86 1011.62 1011.58 1011.74 1011.90 1011.94 1012.14 1012.54 1013.06 1013.38 1013.54 1013.82 1014.02 1014.18 1014.26 1014.34
1019.10 1019.14 1019.02 1018.86 1018.78 1018.62 1018.38 1018.14 1017.86 1017.54 1017.26 1017.02 1016.86 1016.70 1016.46 1016.22 1016.02 1015.94 1015.74 1015.50 1015.34 1015.54 1015.82 1015.50 1015.54 1015.30 1015.30 1015.26 1015.26 1015.34 1015.10 1014.74 1014.74 1014.70 1014.22 1013.62 1013.34 1013.06 1012.82 1012.62 1012.26 1011.98 1011.90 1011.90 1011.90 1011.82 1011.90 1012.10 1012.26 1012.02 1011.74 1011.90 1012.10 1012.26 1012.58 1012.90 1013.22 1013.50 1013.74 1013.90 1014.06 1014.22 1014.34
1018.86 1018.82 1018.74 1018.62 1018.54 1018.38 1018.10 1017.86 1017.62 1017.38 1017.10 1016.82 1016.66 1016.54 1016.38 1016.14 1016.02 1015.98 1015.82 1015.50 1015.30 1015.22 1015.30 1015.50 1015.46 1015.34 1015.26 1015.22 1015.18 1015.14 1015.10 1014.98 1014.82 1014.70 1014.22 1013.86 1013.54 1013.22 1012.94 1012.90 1012.70 1012.50 1012.30 1012.14 1012.02 1012.02 1012.06 1012.02 1011.90 1011.86 1011.94 1011.94 1012.10 1012.30 1012.58 1012.90 1013.18 1013.50 1013.74 1013.90 1014.06 1014.26 1014.30
1018.54 1018.54 1018.42 1018.34 1018.22 1018.06 1017.78 1017.54 1017.34 1017.10 1016.82 1016.62 1016.46 1016.38 1016.34 1016.18 1016.18 1016.14 1016.02 1015.70 1015.34 1015.22 1015.10 1015.22 1015.30 1015.26 1015.22 1015.06 1014.98 1014.90 1014.70 1014.66 1014.78 1014.62 1014.42 1014.02 1013.46 1013.18 1013.10 1013.14 1013.10 1012.94 1012.58 1012.34 1012.22 1012.30 1012.26 1012.18 1012.06 1012.02 1012.02 1012.14 1012.30 1012.46 1012.62 1012.90 1013.18 1013.38 1013.58 1013.86 1014.10 1014.14 1014.18
Wind_Speed
6 6 5 4 2 2 4 4 4 3 3 2 2 2 2 2 1 3 3 4 3 2 4 5 3 3 4 4 5 6 5 3 4 5 4 4 5 4 3 2 3 4 5 5 5 4 3 3 2 3 3 2 3 2 1 7 9 11 8 5 8 5 2
6 5 5 5 4 3 3 3 3 4 4 3 1 1 2 3 3 3 3 4 4 3 2 3 3 3 1 3 5 6 6 4 3 3 4 5 5 5 6 2 3 4 4 4 6 4 3 3 4 4 3 2 4 4 3 2 7 6 7 7 6 7 6
7 6 6 6 5 4 5 5 3 3 3 3 3 2 0 2 2 2 3 4 5 5 5 4 4 4 3 2 4 5 6 5 3 4 4 4 4 6 6 6 3 2 3 4 3 3 5 5 4 3 3 5 4 3 5 4 6 7 7 6 6 4 4
7 6 7 7 7 7 7 6 5 5 2 2 2 2 2 2 2 2 3 3 3 3 5 6 6 5 5 4 3 4 5 5 5 4 5 4 4 6 7 6 5 5 4 3 3 3 2 1 1 3 3 2 8 6 5 5 4 9 8 8 8 6 5
7 7 7 6 8 8 7 7 6 6 5 5 3 3 2 3 2 2 2 4 4 3 5 4 5 5 5 5 5 4 3 4 3 4 4 4 4 5 6 6 7 6 6 5 4 3 2 2 1 2 3 3 4 3 6 4 2 5 9 9 8 8 7
6 6 6 7 7 7 6 7 7 6 6 6 5 6 5 4 3 4 3 4 4 4 4 5 5 6 5 6 6 5 3 3 2 4 5 5 5 5 5 6 6 6 6 6 6 5 3 2 1 2 3 5 3 2 6 4 1 2 9 11 11 9 10
6 5 5 5 6 6 6 6 6 5 6 6 6 5 6 7 5 5 4 5 5 5 4 4 4 5 6 6 7 6 6 4 3 4 4 5 6 7 5 6 6 5 7 7 5 4 3 1 2 2 2 3 2 2 4 3 6 4 3 4 8 10 10
5 5 4 4 4 5 6 6 5 5 5 5 6 5 6 5 6 6 6 6 5 5 5 4 4 4 5 5 5 5 6 5 5 5 5 4 5 8 9 7 7 6 6 6 6 6 4 3 3 3 3 3 3 3 2 3 2 6 7 3 5 9 9
5 5 5 5 4 3 5 6 5 4 5 5 6 6 5 5 5 6 6 7 6 6 6 6 5 4 4 4 5 5 7 5 5 6 6 4 7 8 7 9 8 8 7 6 5 6 5 4 3 3 1 1 1 2 3 4 3 1 11 6 5 9 11
6 6 6 6 5 5 5 5 5 6 5 5 6 6 6 6 6 5 5 5 5 5 5 6 7 6 4 5 5 6 7 7 6 6 5 6 7 5 6 9 9 8 7 7 5 6 4 5 5 3 2 3 2 2 1 2 3 4 5 5 6 6 10
7 7 7 6 5 6 6 6 5 5 6 5 5 5 5 7 6 8 7 5 4 6 5 5 7 8 6 5 6 6 7 7 7 7 7 6 8 6 7 7 6 9 7 7 7 5 5 3 3 4 3 3 3 3 1 2 2 0 1 2 6 7 7
6 6 6 6 7 7 8 7 7 6 6 7 7 5 4 5 6 6 7 9 8 7 5 5 6 6 4 9 9 7 7 7 6 6 7 7 10 8 7 9 8 8 9 7 8 5 5 4 4 3 4 3 3 2 4 1 1 1 0 3 6 9 6
7 7 6 7 7 8 8 7 8 8 7 7 7 7 4 6 5 4 6 8 10 9 6 6 7 4 2 6 7 6 8 8 8 9 8 7 6 7 9 8 8 8 6 6 7 6 5 4 3 5 5 4 3 2 1 1 2 4 3 3 4 6 5
7 7 7 6 6 7 8 7 4 5 7 7 8 7 6 9 6 3 6 7 9 10 8 6 6 4 5 4 5 7 8 8 7 8 9 9 8 9 10 9 8 7 6 10 10 6 5 5 5 5 5 4 5 3 3 3 3 2 2 2 3 3 6
7 6 5 5 5 6 8 8 4 5 6 8 7 9 10 8 8 8 8 8 8 9 11 9 8 4 4 4 7 7 7 6 7 7 7 10 10 7 9 8 8 7 7 7 10 9 6 6 6 5 5 5 5 6 6 4 4 3 3 0 2 2 4
8 7 7 5 6 6 5 7 8 6 6 6 7 7 8 9 10 11 10 9 8 7 9 11 9 6 6 7 6 7 6 5 5 8 7 7 9 8 9 7 9 8 7 5 6 9 8 7 7 6 6 5 4 6 5 5 3 4 3 2 3 3 3
8 9 10 6 7 7 7 7 7 8 9 7 8 7 9 10 10 10 11 10 11 9 8 8 10 9 8 5 6 5 10 7 6 6 6 7 7 7 8 9 8 8 6 4 7 7 9 8 6 5 6 5 5 5 4 6 5 1 1 3 5 5 5
8 7 8 6 6 6 6 6 6 8 9 9 8 7 8 8 8 8 8 10 12 13 9 8 10 10 11 10 11 9 10 9 7 7 7 6 7 8 8 9 10 6 8 8 7 9 8 7 6 5 4 3 5 3 3 5 4 3 0 1 1 0 4
7 8 7 6 6 6 5 5 7 7 8 9 9 8 9 8 6 9 11 11 10 12 11 9 7 6 6 6 7 7 9 10 9 8 6 8 8 7 8 9 9 7 8 10 7 9 4 4 9 5 3 4 3 3 3 4 3 3 3 1 1 0 1
6 7 6 7 8 8 8 7 9 10 8 9 10 10 9 10 10 10 10 10 11 11 11 8 4 5 4 5 5 7 7 8 8 7 6 6 7 7 8 8 9 8 10 9 10 9 8 9 9 3 4 7 4 4 4 4 4 3 3 2 2 2 1
6 7 7 7 7 7 9 10 8 8 9 10 10 10 11 11 10 10 10 10 10 9 8 8 6 6 4 5 5 6 7 8 8 8 8 7 6 7 7 8 6 6 7 7 5 3 6 9 6 8 7 6 5 2 6 4 4 4 3 2 2 3 2
5 7 8 7 7 8 9 8 8 10 9 9 8 9 10 11 12 12 12 11 12 11 9 5 2 4 5 5 6 7 7 8 8 8 8 8 6 5 6 6 6 5 7 9 11 6 5 6 6 6 5 5 3 4 3 3 3 2 3 3 3 2 3
8 7 7 8 8 8 9 8 9 9 9 9 9 9 9 10 11 11 12 12 10 9 8 2 4 5 4 4 6 6 7 7 8 8 8 9 7 3 2 2 3 9 10 12 10 7 6 5 5 7 5 2 1 5 4 4 1 2 2 4 4 4 4
9 9 7 8 8 10 10 8 8 8 8 9 9 9 9 10 10 10 12 11 10 8 8 3 5 5 5 6 5 6 7 8 8 8 8 8 8 6 4 2 1 4 2 3 4 6 7 7 8 11 11 9 6 3 2 5 4 2 0 3 3 4 4
9 8 9 10 10 10 10 10 10 9 9 9 9 9 9 10 10 10 9 10 9 8 7 2 3 4 5 5 4 5 6 7 7 7 7 8 7 7 5 4 3 2 2 0 4 5 6 8 8 8 10 11 10 10 8 5 3 2 3 2 3 3 2
9 8 8 9 9 9 10 11 11 11 11 9 8 10 10 10 10 10 9 10 10 8 8 4 4 4 6 6 4 5 5 6 7 7 7 8 8 7 7 5 6 5 3 3 1 2 4 5 6 8 8 9 9 9 9 10 7 4 3 3 1 2 3
10 10 9 8 8 9 9 9 9 9 9 9 9 10 10 10 10 9 10 10 9 7 8 3 4 4 5 6 7 6 7 6 7 6 7 7 7 7 6 6 5 5 6 5 3 3 3 4 4 4 3 3 5 7 7 8 7 6 4 2 1 2 4
9 9 9 9 9 9 9 8 10 9 8 9 9 10 10 10 10 8 9 10 10 9 7 2 1 2 6 7 11 9 6 7 7 7 6 7 6 5 6 7 7 6 6 7 6 4 4 5 4 3 3 3 3 2 3 3 3 2 2 2 0 1 3
8 8 8 8 9 9 10 10 10 9 8 8 8 8 9 10 9 9 9 10 10 9 10 9 9 9 8 9 11 7 8 8 8 8 8 6 5 5 6 7 7 7 7 6 9 12 10 5 5 5 5 4 3 2 1 3 6 5 5 5 5 4 2
9 9 9 9 10 9 9 10 9 8 9 9 9 9 9 9 9 9 10 10 10 9 8 7 6 4 4 8 7 7 7 7 7 8 8 7 7 5 4 6 7 8 8 9 10 13 14 13 8 8 6 5 4 5 5 2 5 8 9 10 8 6 3
8 8 8 9 9 8 8 7 8 8 9 9 9 9 8 9 9 10 10 10 9 9 7 3 1 1 6 9 7 7 6 7 8 8 8 6 6 7 7 10 7 6 8 9 11 16 16 13 9 9 8 8 8 8 6 4 3 4 6 6 6 6 4
8 8 10 9 8 8 8 7 7 6 8 9 9 8 8 9 9 9 9 8 11 8 2 2 4 7 7 7 7 5 6 6 7 8 9 8 8 6 5 4 6 6 5 8 12 15 17 16 11 11 11 10 10 9 8 8 8 6 4 3 1 3 1
5 6 9 9 8 8 8 7 6 6 7 8 9 8 8 8 9 8 8 8 6 4 4 6 2 4 6 7 6 5 6 7 7 9 9 9 9 7 5 6 5 5 9 7 6 10 15 17 10 9 9 10 10 10 8 9 9 8 7 6 5 5 5
5 5 7 7 7 8 8 8 8 7 6 6 7 8 8 8 7 7 8 7 5 6 5 1 2 4 8 7 6 4 5 6 7 7 8 9 8 8 8 7 4 5 6 6 5 5 10 13 14 10 11 10 8 8 9 8 9 12 7 7 5 4 4
3 5 6 6 6 7 7 8 8 8 7 6 6 7 7 7 6 6 7 7 5 4 3 1 1 5 5 6 6 4 4 5 5 6 7 8 7 8 8 8 8 6 5 4 4 4 5 7 9 6 5 10 13 13 7 6 6 5 6 5 5 4 3
4 4 6 7 8 8 8 8 7 9 8 6 6 6 8 7 5 7 8 7 4 5 1 1 1 3 3 5 8 7 7 6 8 5 6 7 7 7 6 7 8 9 5 4 3 3 5 7 4 5 11 12 12 13 8 5 4 5 5 5 5 5 5
5 5 6 6 7 9 9 7 6 7 7 5 4 5 6 7 7 8 9 9 7 5 4 1 1 4 3 7 9 8 10 10 6 5 5 6 6 6 6 6 7 10 6 4 3 3 4 5 0 8 10 11 11 8 6 6 3 5 5 5 5 5 5
Wind_Direction
3 353 347 351 347 337 336 341 350 349 355 21 2 355 330 327 330 317 344 338 311 318 322 312 289 269 298 306 315 314 315 322 322 315 313 308 305 298 265 224 232 240 237 234 239 225 254 298 298 206 234 191 157 135 81 116 137 153 154 139 125 137 222
1 1 347 350 346 358 328 336 3 347 348 349 353 28 348 337 335 330 338 302 300 321 312 304 326 334 320 299 304 309 308 302 286 275 287 290 300 290 298 237 233 263 280 249 228 219 216 232 252 246 203 114 86 111 114 128 121 118 118 123 134 149 172
1 360 354 350 350 349 354 360 6 358 348 331 343 355 21 308 306 296 306 322 326 318 312 308 300 296 281 245 271 271 269 274 272 278 271 287 294 296 296 301 300 266 254 280 289 229 212 211 240 273 271 157 158 163 143 173 145 136 128 127 124 110 124
7 2 355 355 356 356 359 350 354 343 332 334 328 339 326 313 278 290 289 286 290 305 306 305 305 312 309 298 275 285 279 262 261 270 268 257 270 287 293 294 285 269 254 262 258 282 284 276 251 254 269 289 172 170 162 173 180 140 146 142 134 143 137
7 1 358 360 359 354 353 345 347 342 347 345 354 346 327 337 320 289 314 308 299 290 284 279 285 283 283 279 290 288 289 295 300 286 281 265 259 266 279 287 287 289 294 293 286 294 321 301 348 310 300 301 305 121 168 158 195 151 145 146 146 147 135
7 3 354 2 358 349 350 344 349 347 345 340 348 337 346 337 337 324 313 293 283 277 282 288 289 292 301 319 310 294 281 276 281 293 289 288 274 259 268 278 276 284 277 271 279 285 306 339 351 335 296 310 325 1 143 144 175 203 157 158 153 143 136
358 2 349 359 354 347 341 342 342 345 342 342 343 343 336 332 331 326 313 311 303 294 281 272 283 299 300 292 286 296 299 291 288 276 280 291 298 288 265 276 278 262 272 288 292 283 250 244 276 225 262 291 281 266 155 200 174 165 193 171 148 141 135
353 341 346 346 343 347 336 336 338 338 341 341 338 338 323 331 329 325 323 310 306 304 307 295 284 284 285 279 287 300 286 270 260 265 269 281 285 294 298 277 278 280 259 264 278 282 282 240 210 224 222 247 272 251 234 207 210 185 153 196 158 138 137
349 329 338 331 341 350 333 331 329 335 342 339 335 329 326 324 324 314 315 315 317 313 303 297 285 276 263 262 265 267 278 275 264 259 261 249 251 250 262 280 270 265 273 255 260 260 258 279 268 258 221 238 236 277 206 227 231 215 161 164 159 143 140
348 341 340 332 345 352 334 326 330 337 345 344 333 329 327 327 319 310 300 304 304 305 299 300 292 273 264 251 251 258 264 271 269 265 273 268 262 253 238 259 269 262 261 274 245 254 238 235 269 276 226 205 205 216 260 266 235 211 199 159 158 152 149
343 343 335 333 354 348 335 324 329 334 342 329 327 314 326 323 321 317 310 305 304 296 293 273 278 279 261 257 256 248 248 248 253 251 246 249 266 242 250 249 250 272 264 262 264 238 255 236 225 253 252 233 199 213 230 229 265 233 297 312 173 153 148
340 339 331 348 356 340 331 335 338 342 331 331 316 310 317 318 314 324 335 330 314 298 296 294 278 280 7 321 303 291 274 261 252 259 261 234 241 245 229 241 244 246 254 250 262 240 239 242 219 231 266 227 244 194 209 242 310 283 149 64 3 121 149
340 329 348 354 340 332 334 338 338 332 328 315 305 308 316 306 302 334 332 315 313 310 306 307 297 284 223 218 248 266 269 263 268 267 255 240 238 242 261 251 243 240 254 292 264 244 229 233 216 224 234 230 209 193 140 161 207 255 4 55 81 117 97
333 348 347 347 339 337 328 316 314 325 318 314 312 311 318 304 304 325 325 323 318 314 311 310 308 298 267 254 256 260 259 270 276 275 269 260 253 234 231 235 242 237 213 234 253 238 233 227 229 224 247 218 191 188 164 172 208 259 303 114 97 82 127
341 332 346 344 349 328 310 305 322 333 319 311 319 328 320 325 334 339 335 319 316 319 319 314 311 311 297 253 249 255 273 269 266 270 278 284 275 262 257 249 269 282 271 238 262 248 222 228 225 215 224 236 189 186 170 177 196 218 210 329 89 119 107
334 334 347 337 314 303 310 337 334 326 318 326 323 319 339 339 338 336 327 317 313 316 317 320 319 312 280 284 302 302 277 266 271 282 279 264 262 261 253 232 238 247 265 273 264 271 257 224 226 218 211 225 214 183 176 179 181 193 209 198 180 161 170
336 351 332 326 327 344 346 332 328 332 330 321 331 344 336 333 334 327 315 316 317 311 312 317 317 319 317 305 285 312 296 293 294 292 293 296 278 270 273 265 242 233 236 256 265 249 263 271 225 229 220 203 222 188 181 162 183 165 195 176 194 193 147
333 328 312 325 329 336 334 332 333 335 324 325 332 329 327 320 310 308 316 327 322 316 321 328 323 345 354 352 353 335 310 299 293 287 285 279 281 279 272 265 258 236 228 242 257 276 238 265 280 242 243 218 196 203 167 147 153 149 141 299 296 105 144
317 311 317 324 327 326 322 328 330 315 322 326 327 323 312 307 315 337 332 325 322 318 323 323 345 12 348 345 335 322 312 310 299 287 283 280 276 271 266 260 246 223 220 227 232 247 243 231 267 257 244 266 205 168 139 121 114 129 151 230 305 294 68
331 331 334 340 338 336 339 335 328 331 336 336 326 323 333 341 341 339 327 324 323 315 310 314 24 359 351 329 316 310 301 291 284 289 291 282 276 274 269 264 259 236 228 225 225 236 216 206 229 267 330 294 249 159 147 136 139 143 150 171 242 262 159
351 337 339 340 340 338 339 334 339 340 338 329 322 335 343 339 334 328 323 316 314 312 320 348 26 357 328 321 316 317 318 314 312 306 296 288 287 293 291 276 254 235 229 230 230 268 242 201 199 196 196 264 287 157 149 145 140 153 160 175 210 199 225
359 343 335 336 343 342 333 333 341 337 327 323 336 343 341 336 332 325 328 332 329 332 334 5 21 328 328 325 325 319 319 315 312 308 303 298 293 294 281 259 248 232 224 226 224 211 238 226 198 172 201 253 233 58 64 93 128 153 164 169 203 249 193
349 334 329 347 339 335 331 333 334 325 330 341 339 337 336 331 322 322 325 323 322 322 328 330 348 345 333 330 315 312 315 314 312 309 306 303 299 286 290 285 277 250 219 223 207 147 147 151 135 146 152 120 85 133 161 186 136 129 196 183 193 193 228
332 331 353 339 338 333 334 334 330 330 343 340 334 335 331 321 327 329 321 319 319 320 324 6 354 313 330 344 319 314 315 312 307 304 305 306 304 296 258 262 307 349 309 183 115 125 116 116 118 109 91 78 59 68 99 121 152 225 174 252 192 177 197
333 349 347 341 338 343 340 337 333 338 339 333 333 328 324 327 322 317 313 312 315 315 316 113 309 295 316 308 301 309 306 304 307 306 306 304 299 295 265 237 247 249 288 266 142 110 105 104 97 93 104 99 83 69 68 89 124 80 65 47 1 287 200
335 339 348 0 358 347 342 335 342 340 333 331 328 330 323 317 315 314 313 313 309 311 319 200 280 290 289 295 310 306 295 300 298 301 300 300 297 295 284 241 231 234 216 261 217 153 134 117 107 111 104 110 110 106 93 80 74 108 127 92 45 339 347
344 345 346 346 343 338 330 333 333 329 326 326 327 320 317 313 310 310 311 310 311 316 319 274 234 271 307 332 324 311 288 287 283 279 286 287 290 286 282 262 237 217 230 223 208 189 157 132 136 124 126 118 119 118 123 131 133 134 132 126 96 323 355
341 345 346 348 346 336 335 333 330 325 324 323 321 318 316 313 310 312 319 323 325 321 319 340 269 22 10 352 337 317 292 305 304 288 268 265 264 265 254 250 241 225 213 220 215 195 174 166 158 154 137 139 117 126 137 138 141 150 122 110 83 43 36
340 338 338 338 334 337 340 333 325 323 322 317 313 314 313 310 314 321 323 324 320 324 331 36 48 32 2 351 335 318 322 312 303 301 298 275 257 241 244 243 248 239 229 222 215 202 212 177 183 179 180 176 171 195 187 140 117 100 102 96 87 76 43
350 352 351 342 339 338 330 325 323 323 317 313 312 312 312 310 318 323 322 320 322 324 342 68 59 46 6 347 340 327 318 311 303 306 304 315 318 289 249 244 252 253 241 230 218 202 198 182 185 188 191 188 192 206 224 165 108 98 92 94 100 110 87
341 339 334 332 332 325 321 319 318 319 315 316 309 307 311 319 324 322 315 318 326 329 9 66 27 355 9 3 341 332 319 316 314 308 314 332 327 307 285 300 286 261 257 251 226 198 200 194 199 194 189 187 187 195 202 172 128 81 102 110 129 134 129
345 342 337 331 324 317 314 311 302 310 311 306 304 310 324 318 316 315 310 318 330 358 330 269 52 14 353 344 343 336 329 325 324 327 326 322 315 294 288 283 284 281 275 273 248 202 197 196 201 193 189 184 187 192 192 175 169 155 157 147 157 153 140
348 342 329 320 314 312 307 301 311 308 299 307 311 316 310 304 307 312 314 322 343 333 334 20 28 294 327 329 2 330 333 340 344 335 328 322 314 313 326 323 303 285 284 299 300 225 207 208 203 193 186 193 186 189 172 170 178 170 171 175 177 187 190
328 321 307 300 305 304 311 312 309 296 295 301 303 304 306 304 308 318 319 321 334 329 42 97 257 291 303 330 346 351 326 342 337 328 325 320 320 323 330 326 327 314 303 297 283 242 226 214 213 201 191 197 192 154 140 152 171 171 168 171 176 170 189
316 300 292 298 301 303 306 306 299 305 301 292 293 300 307 306 314 327 317 320 340 358 96 45 143 278 287 317 327 325 317 327 333 318 313 324 323 323 323 332 326 329 319 292 277 254 231 236 247 266 153 121 113 118 119 138 160 157 153 153 158 168 186
286 282 283 291 298 296 294 289 296 300 297 298 306 318 317 316 337 332 322 317 332 338 16 189 140 312 348 334 330 307 290 288 316 293 306 319 320 313 324 344 347 354 328 304 276 237 202 197 193 125 127 116 111 110 111 99 131 157 156 161 164 186 194
297 278 282 292 291 287 282 282 288 289 286 292 306 321 321 333 340 335 329 322 328 336 342 69 335 315 329 341 349 343 334 325 287 280 299 293 309 320 327 334 328 326 318 294 276 232 224 219 126 137 116 116 112 108 107 105 135 172 167 156 180 193 200